EW5239 Weather Reports


time (UTC)temp
C
wind
direction
speed
KPH
gust
KPH
rain 1hr
cm
rain 24hr
cm
rain mn
cm
humidity
%
barometer
mb
20260903125007 21 257 8.0 12.9 0.00 0.00 0.00 57 1015.2
20260903124953 21 263 8.0 12.9 0.00 0.00 0.00 55 1016.8
20260903124507 21 254 8.0 11.3 0.00 0.00 0.00 57 1015.3
20260903124453 21 263 6.4 12.9 0.00 0.00 0.00 56 1017.1
20260903124008 21 262 8.0 12.9 0.00 0.00 0.00 55 1015.1
20260903123953 21 233 8.0 12.9 0.00 0.00 0.00 53 1017.2
20260903123507 21 255 11.3 14.5 0.00 0.00 0.00 55 1015.2
20260903123453 21 249 11.3 16.1 0.00 0.00 0.00 53 1017.1
20260903123007 22 252 12.9 16.1 0.00 0.00 0.00 54 1015.2
20260903122953 21 265 12.9 16.1 0.00 0.00 0.00 53 1017.1
20260903122454 21 245 8.0 16.1 0.00 0.00 0.00 54 1017.3
20260903122007 21 251 6.4 8.0 0.00 0.00 0.00 58 1015.4
20260903121507 21 259 8.0 12.9 0.00 0.00 0.00 57 1015.3
20260903121453 21 251 8.0 12.9 0.00 0.00 0.00 55 1017.2
20260903120954 21 266 12.9 12.9 0.00 0.00 0.00 54 1017.4
20260903120507 21 260 11.3 12.9 0.00 0.00 0.00 57 1015.4
20260903120453 22 259 12.9 16.1 0.00 0.00 0.00 53 1017.4
20260903115507 21 260 11.3 16.1 0.00 0.00 0.00 58 1015.6
20260903115453 21 289 11.3 17.7 0.00 0.00 0.00 55 1017.5
20260903115007 21 270 9.7 12.9 0.00 0.00 0.00 58 1015.5
20260903114953 21 283 9.7 12.9 0.00 0.00 0.00 56 1017.5
20260903114507 21 265 9.7 12.9 0.00 0.00 0.00 57 1015.5
20260903114007 22 253 9.7 14.5 0.00 0.00 0.00 57 1015.6
20260903113953 22 264 9.7 17.7 0.00 0.00 0.00 54 1017.4
20260903113507 22 240 9.7 16.1 0.00 0.00 0.00 56 1015.7
20260903113454 22 247 9.7 17.7 0.00 0.00 0.00 53 1017.6
20260903113007 22 227 9.7 16.1 0.00 0.00 0.00 56 1015.7
20260903112954 22 252 9.7 17.7 0.00 0.00 0.00 53 1017.6
20260903112507 22 234 9.7 12.9 0.00 0.00 0.00 56 1015.7
20260903112007 22 270 9.7 12.9 0.00 0.00 0.00 56 1015.8
20260903111953 22 267 11.3 17.7 0.00 0.00 0.00 53 1017.8
20260903111507 22 288 9.7 12.9 0.00 0.00 0.00 56 1015.8
20260903111454 22 257 11.3 17.7 0.00 0.00 0.00 53 1017.6
20260903111007 21 286 9.7 12.9 0.00 0.00 0.00 60 1015.9
20260903110953 22 266 9.7 12.9 0.00 0.00 0.00 56 1017.7
20260903110007 21 258 11.3 14.5 0.00 0.00 0.00 58 1016.1
20260903105959 21 258 11.3 16.1 0.00 0.00 0.00 56 1017.7
20260903105453 21 254 12.9 16.1 0.00 0.00 0.00 55 1017.9
20260903105007 21 263 14.5 17.7 0.00 0.00 0.00 58 1016.1
20260903104953 21 268 14.5 17.7 0.00 0.00 0.00 56 1018.0
20260903104507 21 270 11.3 17.7 0.00 0.00 0.00 58 1016.1
20260903104453 21 281 11.3 17.7 0.00 0.00 0.00 55 1017.8
20260903103953 21 278 6.4 11.3 0.00 0.00 0.00 55 1018.1
20260903103453 21 289 9.7 12.9 0.00 0.00 0.00 55 1018.2
20260903102953 22 278 9.7 12.9 0.00 0.00 0.00 53 1018.1
20260903102507 21 237 6.4 8.0 0.00 0.00 0.00 58 1016.3
20260903102453 22 236 8.0 12.9 0.00 0.00 0.00 53 1018.2
20260903102007 21 243 8.0 9.7 0.00 0.00 0.00 57 1016.3
20260903101954 22 242 8.0 12.9 0.00 0.00 0.00 52 1018.2
20260903101507 21 247 8.0 9.7 0.00 0.00 0.00 59 1016.5
20260903101006 21 234 6.4 9.7 0.00 0.00 0.00 60 1016.4
20260903100953 22 230 8.0 17.7 0.00 0.00 0.00 54 1018.2
20260903100507 21 237 8.0 11.3 0.00 0.00 0.00 61 1016.5
20260903100453 22 231 8.0 17.7 0.00 0.00 0.00 54 1018.4
20260903100007 21 260 9.7 11.3 0.00 0.00 0.00 61 1016.5
20260903095959 21 263 9.7 11.3 0.00 0.00 0.00 56 1018.2
20260903095508 21 255 9.7 16.1 0.00 0.00 0.00 61 1016.6
20260903095007 21 243 9.7 16.1 0.00 0.00 0.00 60 1016.7
20260903094507 21 253 8.0 11.3 0.00 0.00 0.00 60 1016.6
20260903094453 22 241 8.0 11.3 0.00 0.00 0.00 53 1018.4
20260903094007 21 273 8.0 11.3 0.00 0.00 0.00 62 1016.7
20260903093953 21 247 8.0 11.3 0.00 0.00 0.00 56 1018.6
20260903093507 21 259 4.8 8.0 0.00 0.00 0.00 62 1016.6
20260903093453 21 240 4.8 8.0 0.00 0.00 0.00 57 1018.4
20260903093007 20 199 4.8 6.4 0.00 0.00 0.00 62 1016.8
20260903092953 21 218 4.8 6.4 0.00 0.00 0.00 55 1018.6
20260903092507 20 220 6.4 8.0 0.00 0.00 0.00 62 1017.0
20260903092453 21 233 6.4 9.7 0.00 0.00 0.00 55 1018.7
20260903092007 20 237 9.7 12.9 0.00 0.00 0.00 62 1017.0
20260903091953 21 256 8.0 12.9 0.00 0.00 0.00 56 1018.7
20260903091507 20 249 9.7 12.9 0.00 0.00 0.00 63 1016.8
20260903091007 20 255 8.0 12.9 0.00 0.00 0.00 63 1017.1
20260903090953 21 257 8.0 12.9 0.00 0.00 0.00 56 1018.6
20260903090007 20 262 8.0 12.9 0.00 0.00 0.00 64 1017.2
20260903085959 20 242 8.0 12.9 0.00 0.00 0.00 60 1019.0
20260903085507 20 280 9.7 12.9 0.00 0.00 0.00 65 1017.1
20260903085453 20 270 9.7 12.9 0.00 0.00 0.00 63 1018.9
20260903085007 20 271 8.0 12.9 0.00 0.00 0.00 65 1017.2
20260903084953 20 269 8.0 12.9 0.00 0.00 0.00 62 1018.9
20260903084507 20 263 8.0 17.7 0.00 0.00 0.00 66 1017.2
20260903084453 20 253 8.0 19.3 0.00 0.00 0.00 63 1018.9
20260903083953 20 265 8.0 19.3 0.00 0.00 0.00 62 1019.0
20260903083507 20 289 8.0 17.7 0.00 0.00 0.00 68 1017.0
20260903083453 20 294 8.0 11.3 0.00 0.00 0.00 64 1018.9
20260903083007 19 287 9.7 12.9 0.00 0.00 0.00 68 1017.2
20260903082953 20 288 9.7 14.5 0.00 0.00 0.00 64 1019.2
20260903082507 19 272 9.7 12.9 0.00 0.00 0.00 68 1017.0
20260903082453 20 288 9.7 14.5 0.00 0.00 0.00 65 1019.1
20260903082007 19 256 6.4 12.9 0.00 0.00 0.00 70 1017.1
20260903081507 19 240 8.0 12.9 0.00 0.00 0.00 70 1017.1
20260903080953 19 304 9.7 12.9 0.00 0.00 0.00 69 1019.1
20260903080507 18 275 9.7 11.3 0.00 0.00 0.00 74 1017.1
20260903080453 19 291 9.7 12.9 0.00 0.00 0.00 69 1018.9
20260903080007 18 269 9.7 12.9 0.00 0.00 0.00 74 1017.0
20260903075959 19 276 9.7 12.9 0.00 0.00 0.00 71 1018.9
20260903075454 19 269 9.7 12.9 0.00 0.00 0.00 71 1018.9
20260903075007 18 260 9.7 12.9 0.00 0.00 0.00 75 1017.2
20260903074953 18 259 9.7 12.9 0.00 0.00 0.00 71 1019.0
20260903074453 18 256 8.0 12.9 0.00 0.00 0.00 72 1018.9
20260903073953 18 254 8.0 11.3 0.00 0.00 0.00 74 1019.0
20260903073507 18 263 9.7 12.9 0.00 0.00 0.00 77 1017.0
20260903073453 18 245 9.7 12.9 0.00 0.00 0.00 74 1018.7
20260903073007 17 255 9.7 12.9 0.00 0.00 0.00 79 1017.1
20260903072953 18 250 9.7 12.9 0.00 0.00 0.00 75 1018.7
20260903072507 17 249 8.0 11.3 0.00 0.00 0.00 82 1017.1
20260903072453 18 261 8.0 11.3 0.00 0.00 0.00 77 1018.9
20260903072007 17 262 6.4 9.7 0.00 0.00 0.00 84 1017.1
20260903071953 17 241 4.8 9.7 0.00 0.00 0.00 79 1018.9
20260903071453 17 235 4.8 6.4 0.00 0.00 0.00 83 1018.8
20260903071006 17 264 4.8 6.4 0.00 0.00 0.00 88 1016.9
20260903070953 17 255 4.8 6.4 0.00 0.00 0.00 87 1018.9
20260903070507 16 269 4.8 6.4 0.00 0.00 0.00 91 1017.0
20260903070453 17 272 4.8 6.4 0.00 0.00 0.00 90 1018.9
20260903070007 16 270 4.8 6.4 0.00 0.00 0.00 92 1016.9
20260903065959 17 267 4.8 6.4 0.00 0.00 0.00 92 1019.0
20260903065507 16 267 3.2 6.4 0.00 0.00 0.00 93 1016.9
20260903065454 16 255 3.2 6.4 0.00 0.00 0.00 96 1018.6
20260903064953 16 247 1.6 6.4 0.00 0.00 0.00 98 1018.8
20260903064507 16 181 0.0 3.2 0.00 0.00 0.00 94 1016.8
20260903064007 15 253 1.6 3.2 0.00 0.00 0.00 96 1016.7
20260903063953 15 251 3.2 3.2 0.00 0.00 0.00 99 1018.7
20260903063507 15 277 1.6 4.8 0.00 0.00 0.00 96 1016.9
20260903063454 15 257 3.2 4.8 0.00 0.00 0.00 99 1018.8
20260903062454 15 270 3.2 4.8 0.00 0.00 0.00 99 1018.6
20260903062007 15 258 1.6 4.8 0.00 0.00 0.00 97 1016.7
20260903061953 15 250 3.2 4.8 0.00 0.00 0.00 99 1018.7
20260903061507 14 265 0.0 4.8 0.00 0.00 0.00 98 1016.9
20260903061453 14 222 1.6 4.8 0.00 0.00 0.00 99 1018.6
20260903061006 14 0 0.0 0.0 0.00 0.00 0.00 97 1016.7
20260903060507 13 0 0.0 0.0 0.00 0.00 0.00 97 1016.7
20260903060453 14 193 1.6 3.2 0.00 0.00 0.00 99 1018.6
20260903060007 13 209 0.0 3.2 0.00 0.00 0.00 97 1016.8
20260903055959 13 214 1.6 3.2 0.00 0.00 0.00 99 1019.0
20260903055507 13 209 0.0 3.2 0.00 0.00 0.00 98 1016.8
20260903055453 13 219 1.6 3.2 0.00 0.00 0.00 99 1018.8
20260903054953 13 239 1.6 3.2 0.00 0.00 0.00 99 1018.8
20260903054507 13 0 0.0 0.0 0.00 0.00 0.00 98 1017.0
20260903053953 12 188 1.6 3.2 0.00 0.00 0.00 97 1018.8
20260903053506 13 0 0.0 0.0 0.00 0.00 0.00 98 1017.0
20260903053007 13 0 0.0 0.0 0.00 0.00 0.00 98 1016.8
20260903052953 12 183 1.6 3.2 0.00 0.00 0.00 97 1018.9
20260903052453 12 181 0.0 3.2 0.00 0.00 0.00 97 1018.7
20260903052006 12 0 0.0 0.0 0.00 0.00 0.00 97 1016.7
20260903051507 12 0 0.0 0.0 0.00 0.00 0.00 97 1016.7
20260903051007 12 0 0.0 0.0 0.00 0.00 0.00 97 1016.7
20260903050953 11 0 0.0 0.0 0.00 0.00 0.00 98 1019.0
20260903050453 11 90 0.0 1.6 0.00 0.00 0.00 98 1018.9
20260903050006 11 0 0.0 0.0 0.00 0.00 0.00 98 1016.8
20260903050000 11 90 0.0 1.6 0.00 0.00 0.00 98 1018.8
20260903045507 11 0 0.0 0.0 0.00 0.00 0.00 98 1016.7
20260903045007 11 0 0.0 0.0 0.00 0.00 0.00 98 1016.8
20260903044954 11 0 0.0 0.0 0.00 0.00 0.00 98 1018.8
20260903044506 11 0 0.0 0.0 0.00 0.00 0.00 98 1016.7
20260903044453 11 0 0.0 0.0 0.00 0.00 0.00 98 1018.8
20260903044007 11 0 0.0 0.0 0.00 0.00 0.00 99 1016.9
20260903043953 11 135 0.0 1.6 0.00 0.00 0.00 98 1019.0
20260903043507 10 0 0.0 0.0 0.00 0.00 0.00 99 1016.7
20260903043453 11 135 0.0 1.6 0.00 0.00 0.00 98 1018.8
20260903043006 10 0 0.0 0.0 0.00 0.00 0.00 99 1016.8
20260903042953 11 0 0.0 0.0 0.00 0.00 0.00 99 1019.0
20260903042453 10 0 0.0 0.0 0.00 0.00 0.00 99 1018.8
20260903042007 10 0 0.0 0.0 0.00 0.00 0.00 99 1016.8
20260903041954 11 181 0.0 1.6 0.00 0.00 0.00 99 1018.8
20260903041506 10 0 0.0 0.0 0.00 0.00 0.00 99 1016.8
20260903041453 11 181 0.0 1.6 0.00 0.00 0.00 99 1018.8
20260903041007 10 0 0.0 0.0 0.00 0.00 0.00 99 1016.8
20260903040953 10 181 0.0 1.6 0.00 0.00 0.00 99 1018.8
20260903040507 10 0 0.0 0.0 0.00 0.00 0.00 99 1016.7
20260903040455 10 181 0.0 1.6 0.00 0.00 0.00 99 1018.8
20260903040009 10 0 0.0 0.0 0.00 0.00 0.00 99 1016.8
20260903035506 10 0 0.0 0.0 0.00 0.00 0.00 99 1016.6
20260903035453 10 0 0.0 0.0 0.00 0.00 0.00 99 1019.0
20260903035007 10 0 0.0 0.0 0.00 0.00 0.00 99 1016.7
20260903034953 10 0 0.0 0.0 0.00 0.00 0.00 99 1018.6
20260903034507 10 0 0.0 0.0 0.00 0.00 0.00 99 1016.6
20260903034453 11 0 0.0 0.0 0.00 0.00 0.00 99 1018.7
20260903034006 10 0 0.0 0.0 0.00 0.00 0.00 99 1016.6
20260903033954 11 0 0.0 0.0 0.00 0.00 0.00 98 1018.9
20260903033507 10 0 0.0 0.0 0.00 0.00 0.00 99 1016.5
20260903033454 11 0 0.0 0.0 0.00 0.00 0.00 99 1018.7
20260903033007 10 0 0.0 0.0 0.00 0.00 0.00 98 1016.6
20260903032953 10 0 0.0 0.0 0.00 0.00 0.00 99 1018.7
20260903032507 10 0 0.0 0.0 0.00 0.00 0.00 98 1016.8
20260903032453 10 0 0.0 0.0 0.00 0.00 0.00 99 1018.7
20260903031953 10 0 0.0 0.0 0.00 0.00 0.00 99 1018.7
20260903031507 10 0 0.0 0.0 0.00 0.00 0.00 98 1016.8
20260903031453 10 0 0.0 0.0 0.00 0.00 0.00 99 1018.6
20260903031007 10 0 0.0 0.0 0.00 0.00 0.00 98 1016.7
20260903030507 10 0 0.0 0.0 0.00 0.00 0.00 98 1016.7
20260903030006 10 0 0.0 0.0 0.00 0.00 0.00 98 1016.6
20260903025959 10 0 0.0 0.0 0.00 0.00 0.00 99 1018.7
20260903025506 10 0 0.0 0.0 0.00 0.00 0.00 98 1016.7
20260903025453 10 0 0.0 0.0 0.00 0.00 0.00 99 1018.6
20260903025007 10 0 0.0 0.0 0.00 0.00 0.00 98 1016.7
20260903024954 10 0 0.0 0.0 0.00 0.00 0.00 99 1018.6
20260903024507 10 0 0.0 0.0 0.00 0.00 0.00 97 1016.7
20260903024454 11 0 0.0 0.0 0.00 0.00 0.00 99 1018.8
20260903024007 10 0 0.0 0.0 0.00 0.00 0.00 97 1016.7
20260903023953 11 0 0.0 0.0 0.00 0.00 0.00 98 1019.0
20260903023507 11 0 0.0 0.0 0.00 0.00 0.00 97 1016.8
20260903023453 11 0 0.0 0.0 0.00 0.00 0.00 98 1018.9
20260903022953 11 0 0.0 0.0 0.00 0.00 0.00 98 1018.7
20260903022453 11 0 0.0 0.0 0.00 0.00 0.00 99 1018.9
20260903022007 11 0 0.0 0.0 0.00 0.00 0.00 96 1016.8
20260903021953 11 0 0.0 0.0 0.00 0.00 0.00 99 1018.7
20260903021507 11 0 0.0 0.0 0.00 0.00 0.00 96 1016.7
20260903021454 11 0 0.0 0.0 0.00 0.00 0.00 98 1018.8
20260903021007 11 0 0.0 0.0 0.00 0.00 0.00 96 1016.7
20260903020954 11 0 0.0 0.0 0.00 0.00 0.00 98 1018.8
20260903020507 11 0 0.0 0.0 0.00 0.00 0.00 96 1016.7
20260903020453 11 0 0.0 0.0 0.00 0.00 0.00 98 1018.8
20260903020007 11 0 0.0 0.0 0.00 0.00 0.00 96 1016.8
20260903015959 11 0 0.0 0.0 0.00 0.00 0.00 98 1018.8
20260903015506 11 0 0.0 0.0 0.00 0.00 0.00 96 1016.8
20260903015453 11 0 0.0 0.0 0.00 0.00 0.00 98 1018.9
20260903015007 11 0 0.0 0.0 0.00 0.00 0.00 96 1016.8
20260903014954 11 0 0.0 0.0 0.00 0.00 0.00 98 1018.7
20260903014507 11 0 0.0 0.0 0.00 0.00 0.00 96 1016.9
20260903014007 11 0 0.0 0.0 0.00 0.00 0.00 96 1016.7
20260903013507 11 0 0.0 0.0 0.00 0.00 0.00 96 1016.9
20260903013453 11 0 0.0 0.0 0.00 0.00 0.00 98 1018.7
20260903013006 11 0 0.0 0.0 0.00 0.00 0.00 96 1016.9
20260903012953 11 0 0.0 0.0 0.00 0.00 0.00 98 1018.9
20260903012454 11 0 0.0 0.0 0.00 0.00 0.00 98 1018.7
20260903012007 12 0 0.0 0.0 0.00 0.00 0.00 95 1016.8
20260903011953 12 0 0.0 0.0 0.00 0.00 0.00 97 1018.9
20260903011453 12 0 0.0 0.0 0.00 0.00 0.00 97 1018.8
20260903011006 12 0 0.0 0.0 0.00 0.00 0.00 95 1016.9
20260903010953 12 0 0.0 0.0 0.00 0.00 0.00 97 1018.8
20260903010507 12 0 0.0 0.0 0.00 0.00 0.00 95 1016.7
20260903010453 12 0 0.0 0.0 0.00 0.00 0.00 97 1018.9
20260903010007 12 0 0.0 0.0 0.00 0.00 0.00 95 1016.9
20260903005507 12 0 0.0 0.0 0.00 0.00 0.00 95 1016.9
20260903005007 12 0 0.0 0.0 0.00 0.00 0.00 95 1016.8
20260903004953 12 0 0.0 0.0 0.00 0.00 0.00 97 1018.8
20260903004506 12 0 0.0 0.0 0.00 0.00 0.00 95 1017.0
20260903004454 12 0 0.0 0.0 0.00 0.00 0.00 97 1018.8
20260903004006 12 0 0.0 0.0 0.00 0.00 0.00 95 1016.8
20260903003953 12 0 0.0 0.0 0.00 0.00 0.00 97 1018.9
20260903003507 12 0 0.0 0.0 0.00 0.00 0.00 95 1016.9
20260903003453 12 0 0.0 0.0 0.00 0.00 0.00 97 1018.8
20260903002954 12 0 0.0 0.0 0.00 0.00 0.00 97 1018.8
20260903002506 12 0 0.0 0.0 0.00 0.00 0.00 95 1016.7
20260903002453 12 0 0.0 0.0 0.00 0.00 0.00 97 1018.8
20260903002007 12 0 0.0 0.0 0.00 0.00 0.00 95 1016.9
20260903001507 12 0 0.0 0.0 0.00 0.00 0.00 95 1016.8
20260903001454 12 0 0.0 0.0 0.00 0.00 0.00 97 1018.8
20260903001006 12 0 0.0 0.0 0.00 0.00 0.00 95 1016.8
20260903000953 12 0 0.0 0.0 0.00 0.00 0.00 97 1018.7
20260903000506 12 0 0.0 0.0 0.00 0.00 0.00 95 1016.8
20260903000454 12 0 0.0 0.0 0.00 0.00 0.00 97 1018.8
20260903000007 12 0 0.0 0.0 0.00 0.00 0.00 95 1016.7
20260902235454 12 0 0.0 0.0 0.00 0.00 0.00 96 1018.8
20260902235006 13 0 0.0 0.0 0.00 0.00 0.00 95 1016.8
20260902234953 12 0 0.0 0.0 0.00 0.00 0.00 96 1018.9
20260902234507 13 0 0.0 0.0 0.00 0.00 0.00 95 1016.8
20260902234453 12 0 0.0 0.0 0.00 0.00 0.00 96 1018.8
20260902234006 12 0 0.0 0.0 0.00 0.00 0.00 95 1016.8
20260902233953 12 0 0.0 0.0 0.00 0.00 0.00 96 1018.9
20260902233506 13 0 0.0 0.0 0.00 0.00 0.00 95 1016.8
20260902233453 12 0 0.0 0.0 0.00 0.00 0.00 96 1019.0
20260902233007 13 0 0.0 0.0 0.00 0.00 0.00 95 1016.7
20260902232954 13 0 0.0 0.0 0.00 0.00 0.00 96 1018.9
20260902232506 13 0 0.0 0.0 0.00 0.00 0.00 94 1016.7
20260902232453 13 0 0.0 0.0 0.00 0.00 0.00 96 1018.8
20260902232006 13 0 0.0 0.0 0.00 0.00 0.00 94 1016.9
20260902231954 13 0 0.0 0.0 0.00 0.00 0.00 95 1018.9
20260902231507 13 0 0.0 0.0 0.00 0.00 0.00 94 1016.7
20260902231453 13 0 0.0 0.0 0.00 0.00 0.00 95 1019.0
20260902230506 13 0 0.0 0.0 0.00 0.00 0.00 94 1016.9
20260902230453 13 0 0.0 0.0 0.00 0.00 0.00 95 1018.8
20260902230007 13 0 0.0 0.0 0.00 0.00 0.00 93 1016.9
20260902225959 13 0 0.0 0.0 0.00 0.00 0.00 94 1018.9
20260902225453 13 0 0.0 0.0 0.00 0.00 0.00 94 1018.8
20260902225006 13 0 0.0 0.0 0.00 0.00 0.00 93 1016.9
20260902224954 13 0 0.0 0.0 0.00 0.00 0.00 94 1018.8
20260902224507 13 0 0.0 0.0 0.00 0.00 0.00 93 1016.9
20260902224454 13 0 0.0 0.0 0.00 0.00 0.00 93 1018.8
20260902224007 13 0 0.0 0.0 0.00 0.00 0.00 92 1016.8
20260902223953 13 0 0.0 0.0 0.00 0.00 0.00 92 1018.9
20260902223506 13 0 0.0 0.0 0.00 0.00 0.00 92 1016.7
20260902223453 13 0 0.0 0.0 0.00 0.00 0.00 92 1018.8
20260902222506 13 0 0.0 0.0 0.00 0.00 0.00 92 1016.8
20260902222453 13 0 0.0 0.0 0.00 0.00 0.00 92 1018.7
20260902222007 13 0 0.0 0.0 0.00 0.00 0.00 92 1016.6
20260902221954 13 0 0.0 0.0 0.00 0.00 0.00 92 1018.5
20260902221453 13 0 0.0 0.0 0.00 0.00 0.00 91 1018.6
20260902220954 13 0 0.0 0.0 0.00 0.00 0.00 91 1018.6
20260902220506 13 0 0.0 0.0 0.00 0.00 0.00 90 1016.7
20260902220453 13 0 0.0 0.0 0.00 0.00 0.00 91 1018.7
20260902220007 13 0 0.0 0.0 0.00 0.00 0.00 90 1016.7
20260902215454 13 0 0.0 0.0 0.00 0.00 0.00 89 1018.7
20260902215006 13 0 0.0 0.0 0.00 0.00 0.00 90 1016.7
20260902214506 14 0 0.0 0.0 0.00 0.00 0.00 90 1016.7
20260902214454 13 0 0.0 0.0 0.00 0.00 0.00 89 1018.7
20260902213953 14 0 0.0 0.0 0.00 0.00 0.00 89 1018.6
20260902213506 14 0 0.0 0.0 0.00 0.00 0.00 89 1016.7
20260902212954 14 0 0.0 0.0 0.00 0.00 0.00 88 1018.7
20260902212507 14 0 0.0 0.0 0.00 0.00 0.00 88 1016.7
20260902212453 14 0 0.0 0.0 0.00 0.00 0.00 88 1018.6
20260902212006 14 0 0.0 0.0 0.00 0.00 0.00 88 1016.7
20260902211953 14 0 0.0 0.0 0.00 0.00 0.00 88 1018.5
20260902211507 14 0 0.0 0.0 0.00 0.00 0.00 88 1016.6
20260902211007 15 0 0.0 0.0 0.00 0.00 0.00 88 1016.7
20260902210954 15 0 0.0 0.0 0.00 0.00 0.00 88 1018.5
20260902210506 15 0 0.0 0.0 0.00 0.00 0.00 88 1016.6
20260902210006 15 0 0.0 0.0 0.00 0.00 0.00 86 1016.5
20260902205959 15 0 0.0 0.0 0.00 0.00 0.00 86 1018.7
20260902205507 15 0 0.0 0.0 0.00 0.00 0.00 86 1016.8
20260902205453 15 0 0.0 0.0 0.00 0.00 0.00 86 1018.6
20260902205006 15 0 0.0 0.0 0.00 0.00 0.00 86 1016.5
20260902204953 15 0 0.0 0.0 0.00 0.00 0.00 86 1018.7
20260902204506 15 0 0.0 0.0 0.00 0.00 0.00 86 1016.7
20260902203953 15 0 0.0 0.0 0.00 0.00 0.00 86 1018.4
20260902203506 15 0 0.0 0.0 0.00 0.00 0.00 86 1016.7
20260902203006 15 0 0.0 0.0 0.00 0.00 0.00 86 1016.9
20260902202507 15 0 0.0 0.0 0.00 0.00 0.00 86 1016.6
20260902202453 15 0 0.0 0.0 0.00 0.00 0.00 86 1018.7
20260902202006 16 0 0.0 0.0 0.00 0.00 0.00 86 1016.8
20260902201953 16 0 0.0 0.0 0.00 0.00 0.00 87 1018.6
20260902201506 16 0 0.0 0.0 0.00 0.00 0.00 87 1016.8
20260902201455 16 181 1.6 3.2 0.00 0.00 0.00 87 1018.9
20260902201007 16 0 0.0 0.0 0.00 0.00 0.00 87 1016.9
20260902200953 16 181 1.6 3.2 0.00 0.00 0.00 87 1018.9
20260902200507 15 0 0.0 0.0 0.00 0.00 0.00 87 1017.0
20260902200453 16 181 1.6 3.2 0.00 0.00 0.00 87 1018.9
20260902200006 15 225 0.0 1.6 0.00 0.00 0.00 87 1017.0
20260902195959 16 181 1.6 3.2 0.00 0.00 0.00 87 1019.2
20260902195506 15 225 0.0 1.6 0.00 0.00 0.00 87 1017.1
20260902195454 16 181 0.0 1.6 0.00 0.00 0.00 87 1019.0
20260902194506 15 0 0.0 0.0 0.00 0.00 0.00 86 1017.1
20260902194453 15 181 0.0 3.2 0.00 0.00 0.00 86 1019.0
20260902194007 16 0 0.0 0.0 0.00 0.00 0.00 86 1016.9
20260902193953 16 181 0.0 1.6 0.00 0.00 0.00 86 1019.0
20260902193507 16 0 0.0 0.0 0.00 0.00 0.00 86 1017.1
20260902193453 16 225 0.0 1.6 0.00 0.00 0.00 86 1018.9
20260902193006 16 270 0.0 1.6 0.00 0.00 0.00 85 1017.1
20260902192954 16 225 1.6 3.2 0.00 0.00 0.00 84 1019.0
20260902192506 16 270 0.0 1.6 0.00 0.00 0.00 84 1017.1
20260902192453 16 225 1.6 3.2 0.00 0.00 0.00 84 1019.1
20260902192007 16 270 0.0 1.6 0.00 0.00 0.00 84 1017.2
20260902191506 16 181 0.0 1.6 0.00 0.00 0.00 84 1017.2
20260902191453 16 140 1.6 3.2 0.00 0.00 0.00 84 1019.0
20260902191006 16 181 0.0 1.6 0.00 0.00 0.00 84 1017.2
20260902190953 16 148 1.6 3.2 0.00 0.00 0.00 83 1019.1
20260902190507 16 181 0.0 1.6 0.00 0.00 0.00 83 1017.1
20260902190454 16 168 1.6 3.2 0.00 0.00 0.00 83 1019.2
20260902190006 16 181 0.0 1.6 0.00 0.00 0.00 83 1017.2
20260902185959 16 181 1.6 3.2 0.00 0.00 0.00 83 1019.1
20260902185506 16 0 0.0 0.0 0.00 0.00 0.00 83 1017.3
20260902185453 16 181 0.0 1.6 0.00 0.00 0.00 83 1019.1
20260902185007 16 0 0.0 0.0 0.00 0.00 0.00 82 1017.3
20260902184506 16 0 0.0 0.0 0.00 0.00 0.00 82 1017.1
20260902184453 16 181 0.0 1.6 0.00 0.00 0.00 82 1019.2
20260902184006 16 181 0.0 1.6 0.00 0.00 0.00 82 1017.3
20260902183506 16 181 0.0 1.6 0.00 0.00 0.00 82 1017.2
20260902183453 16 172 1.6 3.2 0.00 0.00 0.00 80 1019.3
20260902183007 16 0 0.0 0.0 0.00 0.00 0.00 81 1017.2
20260902182506 16 0 0.0 0.0 0.00 0.00 0.00 80 1017.1
20260902182454 17 0 0.0 0.0 0.00 0.00 0.00 77 1019.1
20260902182006 16 0 0.0 0.0 0.00 0.00 0.00 79 1017.1
20260902181953 17 0 0.0 0.0 0.00 0.00 0.00 77 1019.0
20260902181507 17 0 0.0 0.0 0.00 0.00 0.00 77 1017.0
20260902180953 17 0 0.0 0.0 0.00 0.00 0.00 76 1019.1
20260902180507 17 0 0.0 0.0 0.00 0.00 0.00 76 1016.9
20260902180453 17 0 0.0 0.0 0.00 0.00 0.00 75 1018.9
20260902180007 17 0 0.0 0.0 0.00 0.00 0.00 75 1016.9
20260902175959 17 0 0.0 0.0 0.00 0.00 0.00 74 1018.9
20260902175453 17 0 0.0 0.0 0.00 0.00 0.00 74 1019.0
20260902175007 17 0 0.0 0.0 0.00 0.00 0.00 74 1017.1
20260902174953 17 0 0.0 0.0 0.00 0.00 0.00 73 1018.8
20260902174506 18 0 0.0 0.0 0.00 0.00 0.00 73 1017.0
20260902174453 17 225 0.0 3.2 0.00 0.00 0.00 73 1018.6
20260902173954 18 225 1.6 3.2 0.00 0.00 0.00 72 1018.8
20260902173507 18 0 0.0 0.0 0.00 0.00 0.00 72 1016.8
20260902173006 18 0 0.0 0.0 0.00 0.00 0.00 71 1016.7
20260902172953 18 241 3.2 3.2 0.00 0.00 0.00 70 1018.7
20260902172506 18 0 0.0 0.0 0.00 0.00 0.00 71 1016.7
20260902172454 18 225 3.2 3.2 0.00 0.00 0.00 70 1018.7
20260902172007 18 0 0.0 0.0 0.00 0.00 0.00 71 1016.7
20260902171953 18 225 3.2 3.2 0.00 0.00 0.00 70 1018.6
20260902171453 18 225 3.2 3.2 0.00 0.00 0.00 69 1018.6
20260902171006 18 0 0.0 0.0 0.00 0.00 0.00 69 1016.6
20260902170954 18 225 3.2 3.2 0.00 0.00 0.00 68 1018.6
20260902170507 19 304 0.0 3.2 0.00 0.00 0.00 68 1016.7
20260902170453 18 229 3.2 3.2 0.00 0.00 0.00 67 1018.6
20260902170000 19 249 3.2 3.2 0.00 0.00 0.00 67 1018.8
20260902165506 19 272 0.0 3.2 0.00 0.00 0.00 67 1016.7
20260902165453 19 268 3.2 3.2 0.00 0.00 0.00 66 1018.7
20260902164953 19 274 3.2 3.2 0.00 0.00 0.00 66 1018.5
20260902164506 19 270 3.2 3.2 0.00 0.00 0.00 66 1016.7
20260902163953 19 271 3.2 3.2 0.00 0.00 0.00 66 1018.5
20260902163507 20 273 3.2 3.2 0.00 0.00 0.00 66 1016.5
20260902163453 20 279 3.2 4.8 0.00 0.00 0.00 65 1018.6
20260902163006 20 272 3.2 4.8 0.00 0.00 0.00 64 1016.7
20260902162953 20 281 4.8 4.8 0.00 0.00 0.00 65 1018.5
20260902162453 20 279 4.8 4.8 0.00 0.00 0.00 64 1018.6
20260902162007 20 287 4.8 4.8 0.00 0.00 0.00 64 1016.7
20260902161953 20 270 4.8 4.8 0.00 0.00 0.00 64 1018.5
20260902161506 20 280 4.8 6.4 0.00 0.00 0.00 64 1016.8
20260902161454 20 271 4.8 6.4 0.00 0.00 0.00 63 1018.8
20260902160953 20 269 6.4 6.4 0.00 0.00 0.00 63 1018.7
20260902160506 20 283 6.4 6.4 0.00 0.00 0.00 63 1016.7
20260902160453 20 280 6.4 6.4 0.00 0.00 0.00 63 1018.7
20260902160009 20 282 6.4 6.4 0.00 0.00 0.00 63 1016.8
20260902160000 20 288 6.4 6.4 0.00 0.00 0.00 63 1018.7
20260902155506 20 268 6.4 6.4 0.00 0.00 0.00 63 1016.8
20260902155453 20 278 6.4 6.4 0.00 0.00 0.00 62 1018.8
20260902155007 20 285 6.4 8.0 0.00 0.00 0.00 62 1016.7
20260902154953 20 289 6.4 9.7 0.00 0.00 0.00 61 1018.8
20260902154506 20 271 8.0 8.0 0.00 0.00 0.00 61 1016.8
20260902154453 20 300 6.4 9.7 0.00 0.00 0.00 60 1018.7
20260902154006 20 249 8.0 9.7 0.00 0.00 0.00 60 1016.7
20260902153953 20 289 8.0 11.3 0.00 0.00 0.00 59 1018.7
20260902153506 20 265 9.7 14.5 0.00 0.00 0.00 59 1016.8
20260902153453 20 289 11.3 14.5 0.00 0.00 0.00 58 1018.7
20260902153006 21 271 9.7 14.5 0.00 0.00 0.00 57 1016.8
20260902152953 21 278 11.3 14.5 0.00 0.00 0.00 58 1018.7
20260902152506 21 275 9.7 12.9 0.00 0.00 0.00 58 1017.0
20260902151953 21 280 12.9 19.3 0.00 0.00 0.00 56 1019.0
20260902151506 21 285 11.3 17.7 0.00 0.00 0.00 57 1017.0
20260902151453 21 290 11.3 19.3 0.00 0.00 0.00 56 1019.0
20260902151006 21 269 9.7 12.9 0.00 0.00 0.00 57 1016.9
20260902150953 21 294 11.3 14.5 0.00 0.00 0.00 56 1019.0
20260902150506 21 271 11.3 17.7 0.00 0.00 0.00 57 1016.9
20260902150454 21 284 12.9 17.7 0.00 0.00 0.00 56 1018.9
20260902150006 21 292 12.9 17.7 0.00 0.00 0.00 56 1016.8
20260902145959 21 283 12.9 17.7 0.00 0.00 0.00 55 1019.0
20260902145506 21 292 12.9 16.1 0.00 0.00 0.00 55 1016.9
20260902145453 21 284 12.9 17.7 0.00 0.00 0.00 54 1019.0
20260902145006 21 282 11.3 14.5 0.00 0.00 0.00 55 1016.9
20260902144953 21 271 11.3 16.1 0.00 0.00 0.00 54 1019.1
20260902144007 21 285 11.3 16.1 0.00 0.00 0.00 56 1016.9
20260902143954 21 281 12.9 17.7 0.00 0.00 0.00 54 1018.7
20260902143506 21 283 9.7 14.5 0.00 0.00 0.00 56 1016.8
20260902143453 21 287 11.3 16.1 0.00 0.00 0.00 54 1018.8
20260902143006 21 264 9.7 12.9 0.00 0.00 0.00 56 1016.8
20260902142954 21 304 11.3 14.5 0.00 0.00 0.00 54 1018.8
20260902142506 21 255 9.7 12.9 0.00 0.00 0.00 56 1016.8
20260902142453 21 280 11.3 14.5 0.00 0.00 0.00 55 1019.0
20260902142007 21 255 9.7 11.3 0.00 0.00 0.00 58 1016.7
20260902141953 21 267 9.7 11.3 0.00 0.00 0.00 57 1019.0
20260902141453 21 264 9.7 11.3 0.00 0.00 0.00 56 1019.0
20260902141006 21 266 8.0 12.9 0.00 0.00 0.00 57 1016.8
20260902140953 21 269 8.0 12.9 0.00 0.00 0.00 55 1018.9
20260902140006 21 282 11.3 14.5 0.00 0.00 0.00 56 1017.0
20260902135959 21 298 12.9 16.1 0.00 0.00 0.00 55 1018.9
20260902135506 21 287 12.9 17.7 0.00 0.00 0.00 56 1017.1
20260902135453 21 311 14.5 20.9 0.00 0.00 0.00 54 1019.1
20260902135006 21 290 16.1 20.9 0.00 0.00 0.00 58 1017.2
20260902134953 21 318 17.7 20.9 0.00 0.00 0.00 56 1019.0
20260902134506 21 291 14.5 20.9 0.00 0.00 0.00 58 1017.1
20260902134453 21 305 16.1 20.9 0.00 0.00 0.00 57 1019.2
20260902134006 21 277 11.3 17.7 0.00 0.00 0.00 59 1017.4
20260902133506 21 274 12.9 20.9 0.00 0.00 0.00 60 1017.2
20260902133007 21 306 14.5 20.9 0.00 0.00 0.00 59 1017.2
20260902132953 21 292 14.5 20.9 0.00 0.00 0.00 58 1019.3
20260902132506 21 311 12.9 17.7 0.00 0.00 0.00 59 1017.2
20260902132006 21 284 12.9 20.9 0.00 0.00 0.00 59 1017.2
20260902131953 21 297 14.5 22.5 0.00 0.00 0.00 58 1019.3
20260902131506 21 259 14.5 22.5 0.00 0.00 0.00 58 1017.4
20260902131453 21 321 16.1 22.5 0.00 0.00 0.00 57 1019.4
20260902130506 21 279 19.3 25.7 0.00 0.00 0.00 58 1017.4
20260902130453 21 301 19.3 25.7 0.00 0.00 0.00 56 1019.3
20260902130006 21 290 17.7 22.5 0.00 0.00 0.00 58 1017.4
20260902130002 21 305 17.7 24.1 0.00 0.00 0.00 57 1019.3
20260902125506 21 300 17.7 22.5 0.00 0.00 0.00 58 1017.3